Pontiac, MI

2:31 PM EST on January 21, 2018 (GMT -0500)
Oakland County International

Weather History for KPTK - February, 2014

Change the Weather History Date:

Friday, February 28, 2014

  Actual Average Record
Temperature  
Mean Temperature 3 °F -  
Max Temperature 15 °F 34 °F 59 °F (2016)
Min Temperature -9 °F 20 °F -9 °F (2014)
Degree Days  
Heating Degree Days 62    
Moisture  
Dew Point -6 °F    
Average Humidity 61    
Maximum Humidity 75    
Minimum Humidity 45    
Precipitation  
Precipitation 0.00 in - - ()
Snow  
Snow 0.00 in - - ()
Snow Depth 11.00 in    
Sea Level Pressure  
Sea Level Pressure 30.26 in    
Wind  
Wind Speed 4 mph (SE)    
Max Wind Speed 13 mph    
Max Gust Speed 20 mph    
Visibility 10 miles    
Events      
Averages and records for this station are not official NWS values.
T = Trace of Precipitation, MM = Missing Value Source: NWS Daily Summary

Daily Weather History Graph

Daily Weather History Graph

Search for Another Location

Airport or City:

Trip Planner

Search our weather history database for the weather conditions in past years. The results will help you decide how hot, cold, wet, or windy it might be!

Date:

Astronomy

Feb. 28, 2014 Rise Set
Actual Time 7:10 AM EST 6:22 PM EST
Civil Twilight 6:42 AM EST 6:50 PM EST
Nautical Twilight 6:09 AM EST 7:23 PM EST
Astronomical Twilight 5:37 AM EST 7:55 PM EST
Moon 6:25 AM EST (2/28) 5:58 PM EST (2/28)
Length of Visible Light 12h 07m
Length of Day
11h 11m
Waning Crescent, 1% of the Moon is Illuminated
Feb 28
Waning Crescent
Mar 1
New
Mar 8
First Quarter
Mar 16
Full
Mar 23
Last Quarter

Hourly Weather History & Observations

Time (EST) Temp. Windchill Dew Point Humidity Pressure Visibility Wind Dir Wind Speed Gust Speed Precip Events Conditions
12:53 AM -6.0 °F - -13.0 °F 72% 30.25 in 10.0 mi Calm Calm - N/A   Clear
1:53 AM -5.1 °F - -13.0 °F 69% 30.27 in 10.0 mi Calm Calm - N/A   Clear
2:53 AM -8.0 °F - -14.1 °F 75% 30.28 in 10.0 mi Calm Calm - N/A   Clear
3:53 AM -9.0 °F - -15.0 °F 75% 30.29 in 10.0 mi Calm Calm - N/A   Clear
4:53 AM -9.0 °F - -16.1 °F 71% 30.30 in 10.0 mi Calm Calm - N/A   Clear
5:53 AM -9.0 °F - -16.1 °F 71% 30.31 in 10.0 mi Calm Calm - N/A   Clear
6:53 AM -9.9 °F - -16.1 °F 74% 30.34 in 9.0 mi Calm Calm - N/A   Clear
7:53 AM -9.0 °F - -15.0 °F 75% 30.35 in 7.0 mi Calm Calm - N/A   Partly Cloudy
8:53 AM -0.0 °F -14.2 °F -14.1 °F 52% 30.35 in 10.0 mi ESE 8.1 mph - N/A   Partly Cloudy
9:53 AM 3.0 °F -9.3 °F -13.0 °F 47% 30.35 in 10.0 mi SE 6.9 mph - N/A   Partly Cloudy
10:53 AM 6.1 °F -8.7 °F -11.0 °F 45% 30.34 in 10.0 mi SE 10.4 mph - N/A   Partly Cloudy
11:53 AM 10.0 °F -5.2 °F -6.0 °F 48% 30.34 in 10.0 mi SSE 12.7 mph - N/A   Scattered Clouds
12:53 PM 10.9 °F -1.8 °F -4.0 °F 51% 30.32 in 10.0 mi SE 9.2 mph 19.6 mph N/A   Scattered Clouds
1:53 PM 12.0 °F -2.0 °F -0.9 °F 56% 30.28 in 10.0 mi SE 11.5 mph - N/A   Scattered Clouds
2:53 PM 14.0 °F 0.5 °F -2.0 °F 49% 30.25 in 10.0 mi SSE 11.5 mph - N/A   Scattered Clouds
3:53 PM 15.1 °F 2.5 °F -2.0 °F 47% 30.24 in 10.0 mi SSE 10.4 mph - N/A   Mostly Cloudy
4:53 PM 15.1 °F 4.2 °F -0.0 °F 51% 30.21 in 10.0 mi SSE 8.1 mph - N/A   Mostly Cloudy
5:53 PM 15.1 °F 2.5 °F -0.0 °F 51% 30.21 in 10.0 mi SSE 10.4 mph - N/A   Mostly Cloudy
6:53 PM 15.1 °F 4.2 °F 1.9 °F 56% 30.19 in 10.0 mi SE 8.1 mph - N/A   Mostly Cloudy
7:53 PM 15.1 °F 3.3 °F 1.9 °F 56% 30.18 in 10.0 mi SE 9.2 mph - N/A   Overcast
8:53 PM 15.1 °F 3.3 °F 3.0 °F 59% 30.16 in 10.0 mi SE 9.2 mph - N/A   Overcast
9:53 PM 15.1 °F 3.3 °F 5.0 °F 64% 30.15 in 10.0 mi SE 9.2 mph - N/A   Scattered Clouds
10:53 PM 15.1 °F 4.2 °F 6.1 °F 68% 30.13 in 10.0 mi SSE 8.1 mph - N/A   Scattered Clouds
11:53 PM 14.0 °F 3.9 °F 7.0 °F 74% 30.11 in 10.0 mi SE 6.9 mph - N/A   Scattered Clouds